Theta_e
297 296 294 292 291 289 288 287 287 286 286 286 286 285 285 284 284 283 282 281 281 281
294 292 290 289 288 287 286 286 286 285 285 285 284 284 283 282 282 282 282 281 281 280
290 289 287 286 286 286 286 285 284 284 283 283 283 283 282 282 281 280 280 280 279 279
287 286 286 285 285 285 284 283 283 282 282 282 281 281 281 280 280 279 279 278 278 278
285 284 284 283 284 284 282 282 281 281 280 280 280 280 280 279 279 278 277 277 277 277
282 282 282 282 282 282 281 281 280 280 279 279 279 279 279 278 278 278 277 276 276 276
281 281 281 281 281 281 280 280 279 279 279 279 278 278 278 278 277 277 277 277 276 276
280 280 280 280 280 280 280 279 279 279 279 279 279 278 277 277 277 277 276 276 276 277
279 279 279 279 278 279 278 279 279 278 279 279 280 282 280 277 276 276 276 275 276 276
279 278 278 278 278 277 277 277 277 277 277 278 278 281 281 280 277 276 276 275 275 275
278 277 277 276 276 276 276 276 276 276 276 276 277 280 280 279 278 277 276 276 275 275
277 276 276 276 275 275 275 275 275 275 275 275 275 278 279 279 277 276 275 276 275 275
277 277 276 276 275 275 275 275 275 275 274 274 274 276 278 278 277 275 274 274 275 276
276 276 276 276 275 274 274 274 273 274 274 274 274 274 277 278 276 275 274 274 274 274
Wind_Speed
14 8 7 8 7 7 5 5 8 9 9 9 8 9 9 8 7 9 8 10 8 6
11 10 8 11 9 7 7 7 9 10 9 8 9 9 9 7 8 8 8 8 7 6
11 11 10 10 9 8 9 9 8 9 9 8 9 8 8 7 7 8 6 5 6 5
12 8 9 9 9 8 9 9 9 9 8 8 8 7 8 8 7 8 7 5 5 5
12 9 8 10 9 8 9 9 9 8 8 7 7 6 7 7 6 6 6 5 5 4
12 9 9 8 8 8 10 9 8 7 8 7 7 7 6 6 6 5 5 4 4 3
10 9 8 8 8 9 8 8 8 7 7 7 6 6 6 5 5 4 3 3 1 1
9 8 8 8 8 8 7 7 7 7 6 5 5 4 5 4 4 3 2 1 1 2
9 8 8 8 7 7 7 6 6 5 5 5 4 7 7 4 3 1 1 2 3 4
7 8 7 7 7 6 6 5 5 4 4 4 2 5 5 4 2 2 2 3 3 3
7 7 6 6 5 5 4 4 3 3 2 3 2 3 1 1 2 2 3 3 3 3
7 7 6 6 5 4 4 3 2 2 3 2 1 4 4 4 2 4 3 3 2 3
7 7 6 5 5 3 2 3 2 2 1 2 2 4 5 4 2 4 3 3 3 5
6 6 6 5 2 3 3 3 3 2 2 0 0 2 4 5 3 3 4 4 3 3
Wind_Direction
125 118 106 105 112 95 97 122 104 96 94 96 99 93 88 83 81 81 78 78 74 77
97 99 113 105 108 109 119 109 102 99 100 99 93 90 91 89 92 85 80 77 80 73
100 104 119 106 109 111 109 112 109 105 100 97 90 93 96 95 92 92 83 79 84 83
108 121 106 113 117 119 115 119 109 104 105 102 101 98 97 93 96 95 96 88 89 84
113 117 119 116 115 117 116 105 107 107 108 108 100 97 98 99 103 106 101 89 78 70
105 109 109 111 112 116 105 103 110 116 110 107 102 102 98 103 107 108 99 87 68 36
110 117 114 118 115 111 115 122 119 111 109 107 116 114 112 110 115 116 110 90 138 354
113 116 125 121 115 114 118 121 120 119 117 121 115 123 118 112 101 126 156 178 336 343
125 131 122 112 113 115 115 125 129 129 133 134 134 123 110 115 154 127 39 326 342 329
130 121 118 122 120 123 130 126 126 137 151 147 124 151 158 157 91 14 320 288 308 300
132 127 123 126 125 118 119 127 145 140 140 157 195 216 174 330 170 265 265 242 269 281
138 133 137 132 124 120 124 117 135 160 167 182 357 345 299 275 252 272 257 286 281 290
135 143 135 127 128 112 121 144 151 139 115 52 341 311 289 288 298 295 298 297 295 298
122 120 116 109 109 115 115 113 103 66 51 6 308 317 343 327 322 292 293 303 306 299